When you browse on this site, cookies collect data to enhance your experience and personalize the content and advertising you see.
Visit our Privacy Policy to learn more. By continuing to use the site, you agree to this use of cookies and data.

Tiempo cada hora Suhotinovka

Hoy, 14 Agosto, Viernes

Tiempo Temperatura Precipitaciones Viento Presión Humedad
00:00 +10°C° 0.1 mm 3 mps 738 mmHg 90%
01:00 +11°C° 0.1 mm 3 mps 739 mmHg 91%
02:00 +11°C° 0 mm 3 mps 739 mmHg 94%
03:00 +11°C° 0.3 mm 3 mps 739 mmHg 95%
04:00 +11°C° 0.3 mm 3 mps 739 mmHg 95%
05:00 +11°C° 0.3 mm 3 mps 739 mmHg 95%
06:00 +11°C° 0.4 mm 3 mps 739 mmHg 94%
07:00 +12°C° 0.4 mm 4 mps 739 mmHg 92%
08:00 +12°C° 0.4 mm 4 mps 739 mmHg 90%
09:00 +13°C° 0 mm 4 mps 739 mmHg 81%
10:00 +15°C° 0 mm 4 mps 739 mmHg 71%
11:00 +17°C° 0 mm 4 mps 739 mmHg 62%
12:00 +17°C° 0.1 mm 4 mps 739 mmHg 62%
13:00 +16°C° 0.1 mm 5 mps 739 mmHg 62%
14:00 +17°C° 0.1 mm 5 mps 739 mmHg 61%
15:00 +17°C° 0.1 mm 4 mps 740 mmHg 63%
16:00 +17°C° 0.1 mm 4 mps 740 mmHg 65%
17:00 +16°C° 0.1 mm 3 mps 740 mmHg 67%
18:00 +14°C° 0 mm 3 mps 740 mmHg 71%
19:00 +13°C° 0 mm 3 mps 740 mmHg 75%
20:00 +13°C° 0 mm 2 mps 740 mmHg 79%
21:00 +12°C° 0 mm 2 mps 740 mmHg 82%
22:00 +10°C° 0 mm 2 mps 741 mmHg 85%
23:00 +9°C° 0 mm 2 mps 741 mmHg 88%

Mañana, 15 Agosto, Sábado

Tiempo Temperatura Precipitaciones Viento Presión Humedad
00:00 +9°C° 0 mm 2 mps 741 mmHg 89%
01:00 +9°C° 0 mm 2 mps 741 mmHg 90%
02:00 +8°C° 0 mm 2 mps 741 mmHg 90%
03:00 +8°C° 0 mm 2 mps 741 mmHg 91%
04:00 +8°C° 0 mm 2 mps 741 mmHg 92%
05:00 +8°C° 0 mm 2 mps 741 mmHg 92%
06:00 +10°C° 0 mm 2 mps 741 mmHg 86%
07:00 +13°C° 0 mm 2 mps 741 mmHg 79%
08:00 +15°C° 0 mm 2 mps 742 mmHg 72%
09:00 +16°C° 0 mm 3 mps 742 mmHg 67%
10:00 +17°C° 0 mm 3 mps 742 mmHg 62%
11:00 +18°C° 0 mm 3 mps 742 mmHg 57%
12:00 +19°C° 0 mm 3 mps 742 mmHg 56%
13:00 +19°C° 0 mm 3 mps 742 mmHg 56%
14:00 +20°C° 0 mm 3 mps 742 mmHg 55%
15:00 +19°C° 0 mm 3 mps 741 mmHg 60%
16:00 +19°C° 0 mm 3 mps 741 mmHg 64%
17:00 +18°C° 0 mm 2 mps 741 mmHg 69%
18:00 +17°C° 0 mm 2 mps 741 mmHg 73%
19:00 +16°C° 0 mm 2 mps 741 mmHg 76%
20:00 +15°C° 0 mm 1 mps 740 mmHg 80%
21:00 +15°C° 0 mm 1 mps 740 mmHg 81%
22:00 +15°C° 0 mm 1 mps 740 mmHg 81%
23:00 +15°C° 0 mm 1 mps 741 mmHg 82%

Pasado mañana, 16 Agosto, Domingo

Tiempo Temperatura Precipitaciones Viento Presión Humedad
00:00 +14°C° 0.3 mm 1 mps 740 mmHg 85%
01:00 +14°C° 0.3 mm 1 mps 740 mmHg 88%
02:00 +13°C° 0.3 mm 2 mps 740 mmHg 92%
03:00 +13°C° 0.2 mm 2 mps 740 mmHg 93%
04:00 +13°C° 0.2 mm 2 mps 739 mmHg 94%
05:00 +13°C° 0.2 mm 2 mps 739 mmHg 95%
06:00 +14°C° 0 mm 2 mps 739 mmHg 91%
07:00 +16°C° 0 mm 2 mps 739 mmHg 87%
08:00 +17°C° 0 mm 2 mps 739 mmHg 84%
09:00 +18°C° 0 mm 2 mps 739 mmHg 76%
10:00 +20°C° 0 mm 2 mps 739 mmHg 69%
11:00 +21°C° 0 mm 3 mps 739 mmHg 62%
12:00 +21°C° 0 mm 3 mps 739 mmHg 61%
13:00 +22°C° 0 mm 3 mps 739 mmHg 60%
14:00 +22°C° 0 mm 3 mps 739 mmHg 59%
15:00 +23°C° 0 mm 2 mps 739 mmHg 62%
16:00 +23°C° 0 mm 2 mps 739 mmHg 64%
17:00 +23°C° 0 mm 2 mps 738 mmHg 67%
18:00 +20°C° 0 mm 2 mps 738 mmHg 73%
19:00 +19°C° 0 mm 2 mps 738 mmHg 79%
20:00 +18°C° 0 mm 1 mps 739 mmHg 84%
21:00 +17°C° 0 mm 2 mps 739 mmHg 86%
22:00 +16°C° 0 mm 2 mps 739 mmHg 89%
23:00 +16°C° 0 mm 2 mps 738 mmHg 91%

17 Agosto, Lunes

Tiempo Temperatura Precipitaciones Viento Presión Humedad
00:00 +15°C° 0 mm 2 mps 738 mmHg 91%
01:00 +14°C° 0 mm 3 mps 739 mmHg 92%
02:00 +14°C° 0 mm 3 mps 739 mmHg 93%
03:00 +14°C° 0 mm 3 mps 738 mmHg 93%
04:00 +14°C° 0 mm 3 mps 738 mmHg 94%
05:00 +14°C° 0 mm 3 mps 738 mmHg 94%
06:00 +17°C° 0 mm 3 mps 738 mmHg 88%
07:00 +18°C° 0 mm 4 mps 738 mmHg 81%
08:00 +20°C° 0 mm 4 mps 738 mmHg 75%
09:00 +22°C° 0 mm 4 mps 738 mmHg 70%
10:00 +23°C° 0 mm 5 mps 738 mmHg 64%
11:00 +25°C° 0 mm 5 mps 738 mmHg 59%
12:00 +26°C° 0 mm 5 mps 738 mmHg 57%
13:00 +26°C° 0 mm 5 mps 738 mmHg 55%
14:00 +26°C° 0 mm 5 mps 738 mmHg 53%
15:00 +26°C° 0 mm 5 mps 738 mmHg 57%
16:00 +25°C° 0 mm 4 mps 738 mmHg 62%
17:00 +25°C° 0 mm 3 mps 737 mmHg 66%
18:00 +22°C° 0 mm 3 mps 737 mmHg 71%
19:00 +20°C° 0 mm 3 mps 738 mmHg 76%
20:00 +19°C° 0 mm 3 mps 738 mmHg 81%
21:00 +18°C° 0 mm 2 mps 738 mmHg 84%
22:00 +17°C° 0 mm 2 mps 737 mmHg 87%
23:00 +17°C° 0 mm 2 mps 737 mmHg 90%

18 Agosto, Martes

Tiempo Temperatura Precipitaciones Viento Presión Humedad
00:00 +16°C° 0 mm 2 mps 737 mmHg 91%
01:00 +16°C° 0 mm 1 mps 737 mmHg 92%
02:00 +16°C° 0 mm 1 mps 737 mmHg 93%
03:00 +15°C° 0 mm 1 mps 737 mmHg 93%
04:00 +15°C° 0 mm 1 mps 737 mmHg 93%
05:00 +14°C° 0 mm 0 mps 737 mmHg 93%
06:00 +16°C° 0 mm 0 mps 737 mmHg 87%
07:00 +20°C° 0 mm 1 mps 737 mmHg 82%
08:00 +21°C° 0 mm 1 mps 737 mmHg 76%
09:00 +22°C° 0.4 mm 1 mps 737 mmHg 71%
10:00 +23°C° 0.4 mm 1 mps 737 mmHg 67%
11:00 +24°C° 0.4 mm 1 mps 737 mmHg 62%
12:00 +25°C° 0.7 mm 1 mps 737 mmHg 61%
13:00 +25°C° 0.7 mm 1 mps 737 mmHg 59%
14:00 +25°C° 0.7 mm 2 mps 736 mmHg 58%
15:00 +24°C° 0.7 mm 2 mps 736 mmHg 66%
16:00 +21°C° 0.7 mm 2 mps 736 mmHg 73%
17:00 +20°C° 0.7 mm 3 mps 736 mmHg 81%
18:00 +19°C° 0 mm 2 mps 736 mmHg 82%
19:00 +19°C° 0 mm 2 mps 736 mmHg 84%
20:00 +19°C° 0 mm 1 mps 736 mmHg 85%
21:00 +19°C° 0 mm 1 mps 736 mmHg 86%
22:00 +19°C° 0 mm 1 mps 736 mmHg 86%
23:00 +19°C° 0 mm 1 mps 736 mmHg 86%

19 Agosto, Miércoles

Tiempo Temperatura Precipitaciones Viento Presión Humedad
00:00 +19°C° 0 mm 1 mps 736 mmHg 86%
01:00 +19°C° 0 mm 1 mps 736 mmHg 86%
02:00 +18°C° 0 mm 1 mps 736 mmHg 86%
03:00 +16°C° 0 mm 0 mps 736 mmHg 86%
04:00 +16°C° 0 mm 0 mps 735 mmHg 86%
05:00 +16°C° 0 mm 0 mps 735 mmHg 86%
06:00 +17°C° 0 mm 0 mps 735 mmHg 83%
07:00 +20°C° 0 mm 1 mps 735 mmHg 81%
08:00 +21°C° 0 mm 1 mps 735 mmHg 78%
09:00 +21°C° 0.1 mm 1 mps 735 mmHg 75%
10:00 +21°C° 0.1 mm 2 mps 735 mmHg 72%
11:00 +23°C° 0.1 mm 2 mps 735 mmHg 70%
12:00 +23°C° 0.1 mm 2 mps 735 mmHg 67%
13:00 +24°C° 0.1 mm 2 mps 735 mmHg 65%
14:00 +24°C° 0.1 mm 2 mps 735 mmHg 62%
15:00 +24°C° 0.2 mm 2 mps 735 mmHg 65%
16:00 +24°C° 0.2 mm 2 mps 734 mmHg 67%
17:00 +24°C° 0.2 mm 2 mps 734 mmHg 69%
18:00 +21°C° 0 mm 2 mps 734 mmHg 73%
19:00 +20°C° 0 mm 3 mps 734 mmHg 77%
20:00 +18°C° 0 mm 3 mps 734 mmHg 81%
21:00 +18°C° 0 mm 3 mps 734 mmHg 83%
22:00 +18°C° 0 mm 3 mps 734 mmHg 84%
23:00 +17°C° 0 mm 3 mps 734 mmHg 86%
Mostrar más